DW7126 Weather Reports


time (UTC)temp
C
wind
direction
speed
KPH
gust
KPH
rain 1hr
cm
rain 24hr
cm
rain mn
cm
humidity
%
barometer
mb
20200220071203 8 61 1.6 6.4 0.00 0.00 0.00 81 1023.2
20200220071024 8 61 4.8 6.4 0.00 0.00 0.00 81 1023.6
20200220070632 8 153 1.6 6.4 0.00 0.00 0.00 80 1023.2
20200220070131 8 153 3.2 6.4 0.00 0.00 0.00 82 1023.1
20200220070049 8 153 1.6 6.4 0.00 0.00 0.00 82 1023.5
20200220070040 8 153 0.0 6.4 0.00 0.00 0.00 82 1023.5
20200220065631 8 153 4.8 6.4 0.00 0.00 0.00 82 1023.2
20200220065132 8 117 4.8 6.4 0.00 0.00 0.00 82 1023.2
20200220065032 8 117 3.2 6.4 0.00 0.00 0.00 82 1023.5
20200220064632 8 73 3.2 11.3 0.00 0.00 0.00 81 1023.2
20200220064516 8 32 3.2 6.4 0.00 0.00 0.00 85 1023.5
20200220064136 9 22 4.8 11.3 0.00 0.00 0.00 80 1023.1
20200220063630 9 24 6.4 11.3 0.00 0.00 0.00 78 1023.1
20200220063133 10 11 4.8 11.3 0.00 0.00 0.00 77 1023.0
20200220063052 10 11 8.0 11.3 0.00 0.00 0.00 77 1023.3
20200220063023 10 9 6.4 11.3 0.00 0.00 0.00 77 1023.3
20200220062632 10 55 3.2 8.0 0.00 0.00 0.00 77 1022.9
20200220062130 10 61 1.6 6.4 0.00 0.00 0.00 77 1022.8
20200220062030 10 61 0.0 6.4 0.00 0.00 0.00 78 1023.2
20200220061630 10 112 3.2 8.0 0.00 0.00 0.00 78 1022.9
20200220061549 10 113 1.6 8.0 0.00 0.00 0.00 78 1023.2
20200220061132 10 139 1.6 8.0 0.00 0.00 0.00 78 1022.8
20200220061038 10 139 1.6 8.0 0.00 0.00 0.00 78 1023.2
20200220060632 10 92 1.6 4.8 0.00 0.00 0.00 78 1022.8
20200220060106 10 271 1.6 8.0 0.00 0.00 0.00 79 1022.8
20200220060035 10 271 1.6 8.0 0.00 0.00 0.00 79 1023.1
20200220055533 10 271 1.6 9.7 0.00 0.00 0.00 79 1022.8
20200220055043 10 101 3.2 9.7 0.00 0.00 0.00 80 1023.2
20200220055037 10 105 1.6 9.7 0.00 0.00 0.00 80 1022.8
20200220054533 9 62 1.6 6.4 0.00 0.00 0.00 80 1022.8
20200220054047 9 95 3.2 9.7 0.00 0.00 0.00 80 1023.2
20200220054032 9 95 1.6 9.7 0.00 0.00 0.00 80 1022.9
20200220053515 9 80 1.6 9.7 0.00 0.00 0.00 80 1022.9
20200220053032 9 103 1.6 8.0 0.00 0.00 0.00 80 1023.3
20200220053015 9 103 3.2 14.5 0.00 0.00 0.00 80 1023.0
20200220052507 9 103 4.8 14.5 0.00 0.00 0.00 81 1022.9
20200220052042 9 120 3.2 17.7 0.00 0.00 0.00 81 1023.3
20200220051959 9 115 4.8 17.7 0.00 0.00 0.00 81 1023.0
20200220051518 8 88 8.0 17.7 0.00 0.00 0.00 81 1023.3
20200220051434 9 82 3.2 17.7 0.00 0.00 0.00 81 1023.0
20200220051031 9 103 1.6 8.0 0.00 0.00 0.00 79 1023.4
20200220050933 9 103 3.2 9.7 0.00 0.00 0.00 78 1023.0
20200220050423 9 69 1.6 11.3 0.00 0.00 0.00 81 1023.1
20200220050052 10 103 0.0 11.3 0.00 0.00 0.00 80 1023.5
20200220045924 10 103 0.0 11.3 0.00 0.00 0.00 80 1023.2
20200220045405 10 76 0.0 8.0 0.00 0.00 0.00 80 1023.3
20200220045031 10 78 0.0 3.2 0.00 0.00 0.00 80 1023.6
20200220044904 10 78 0.0 8.0 0.00 0.00 0.00 80 1023.3
20200220044403 10 78 1.6 8.0 0.00 0.00 0.00 75 1023.4
20200220044033 11 78 0.0 8.0 0.00 0.00 0.00 74 1023.7
20200220043906 11 78 4.8 8.0 0.00 0.00 0.00 73 1023.4
20200220043333 11 77 6.4 12.9 0.00 0.00 0.00 75 1023.4
20200220043057 11 90 4.8 11.3 0.00 0.00 0.00 76 1023.8
20200220043044 11 86 3.2 11.3 0.00 0.00 0.00 76 1023.8
20200220042832 11 85 4.8 12.9 0.00 0.00 0.00 76 1023.5
20200220042331 11 102 6.4 12.9 0.00 0.00 0.00 76 1023.5
20200220042039 11 62 3.2 12.9 0.00 0.00 0.00 76 1023.9
20200220041830 11 57 6.4 12.9 0.00 0.00 0.00 77 1023.6
20200220041527 11 97 8.0 12.9 0.00 0.00 0.00 78 1024.0
20200220041330 11 65 3.2 11.3 0.00 0.00 0.00 78 1023.6
20200220041030 11 51 4.8 11.3 0.00 0.00 0.00 78 1024.0
20200220040831 11 51 1.6 6.4 0.00 0.00 0.00 78 1023.6
20200220040330 11 61 3.2 6.4 0.00 0.00 0.00 78 1023.7
20200220040035 11 67 3.2 6.4 0.00 0.00 0.00 79 1024.0
20200220035831 11 67 3.2 4.8 0.00 0.00 0.00 79 1023.7
20200220035330 10 51 1.6 4.8 0.00 0.00 0.00 80 1023.7
20200220035046 10 51 1.6 4.8 0.00 0.00 0.00 80 1024.0
20200220034832 10 51 3.2 8.0 0.00 0.00 0.00 81 1023.7
20200220034740 10 51 1.6 8.0 0.00 0.00 0.00 81 1024.1
20200220034330 10 51 1.6 8.0 0.00 0.00 0.00 82 1023.8
20200220034031 10 51 4.8 8.0 0.00 0.00 0.00 83 1024.1
20200220033830 10 65 0.0 6.4 0.00 0.00 0.00 83 1023.8
20200220033333 9 65 0.0 0.0 0.00 0.00 0.00 84 1023.8
20200220033149 9 65 0.0 0.0 0.00 0.00 0.00 84 1024.1
20200220033036 9 65 0.0 0.0 0.00 0.00 0.00 84 1024.1
20200220032833 9 65 0.0 0.0 0.00 0.00 0.00 84 1023.8
20200220032331 9 65 0.0 0.0 0.00 0.00 0.00 85 1023.9
20200220032030 9 65 0.0 0.0 0.00 0.00 0.00 85 1024.3
20200220031831 9 65 0.0 0.0 0.00 0.00 0.00 85 1023.9
20200220031535 8 65 0.0 0.0 0.00 0.00 0.00 86 1024.3
20200220031330 9 65 0.0 0.0 0.00 0.00 0.00 86 1024.0
20200220031047 9 65 0.0 0.0 0.00 0.00 0.00 86 1024.3
20200220030832 9 65 0.0 0.0 0.00 0.00 0.00 86 1024.0
20200220030339 8 65 0.0 0.0 0.00 0.00 0.00 87 1024.0
20200220030045 8 66 0.0 0.0 0.00 0.00 0.00 88 1024.4
20200220025830 8 65 0.0 0.0 0.00 0.00 0.00 89 1024.0
20200220025308 8 65 0.0 0.0 0.00 0.00 0.00 90 1024.1
20200220025028 8 65 0.0 0.0 0.00 0.00 0.00 90 1024.5
20200220024803 8 65 0.0 0.0 0.00 0.00 0.00 91 1024.3
20200220024304 8 65 0.0 0.0 0.00 0.00 0.00 90 1024.4
20200220024035 8 65 0.0 0.0 0.00 0.00 0.00 90 1024.6
20200220023805 8 65 0.0 1.6 0.00 0.00 0.00 90 1024.5
20200220023302 8 65 0.0 1.6 0.00 0.00 0.00 90 1024.5
20200220023044 8 65 0.0 0.0 0.00 0.00 0.00 89 1024.7
20200220022803 8 65 0.0 1.6 0.00 0.00 0.00 89 1024.6
20200220022231 8 65 0.0 3.2 0.00 0.00 0.00 89 1024.6
20200220022050 8 65 0.0 3.2 0.00 0.00 0.00 89 1024.9
20200220021730 8 65 0.0 3.2 0.00 0.00 0.00 89 1024.6
20200220021649 7 66 0.0 1.6 0.00 0.00 0.00 89 1024.8
20200220021205 8 65 0.0 1.6 0.00 0.00 0.00 89 1024.6
20200220021026 8 65 0.0 1.6 0.00 0.00 0.00 89 1024.9
20200220020656 8 65 0.0 1.6 0.00 0.00 0.00 89 1024.7
20200220020132 8 65 0.0 1.6 0.00 0.00 0.00 89 1024.7
20200220020048 8 65 0.0 1.6 0.00 0.00 0.00 89 1025.0
20200220015631 8 65 0.0 3.2 0.00 0.00 0.00 89 1024.8
20200220015132 8 65 0.0 3.2 0.00 0.00 0.00 88 1024.8
20200220015041 8 65 1.6 3.2 0.00 0.00 0.00 88 1025.0
20200220014623 8 65 0.0 3.2 0.00 0.00 0.00 88 1024.8
20200220014500 8 65 0.0 0.0 0.00 0.00 0.00 89 1025.1
20200220014104 8 65 0.0 3.2 0.00 0.00 0.00 89 1024.8
20200220014045 8 65 0.0 3.2 0.00 0.00 0.00 89 1025.1
20200220013542 8 65 1.6 3.2 0.00 0.00 0.00 88 1024.8
20200220013037 8 65 1.6 3.2 0.00 0.00 0.00 88 1025.1
20200220013032 8 65 0.0 3.2 0.00 0.00 0.00 88 1024.9
20200220012530 8 65 0.0 0.0 0.00 0.00 0.00 88 1025.0
20200220012034 8 65 0.0 0.0 0.00 0.00 0.00 88 1025.2
20200220012024 8 65 0.0 0.0 0.00 0.00 0.00 88 1025.0
20200220011525 8 65 0.0 0.0 0.00 0.00 0.00 92 1025.0
20200220011034 8 65 0.0 0.0 0.00 0.00 0.00 87 1025.3
20200220011021 8 65 0.0 0.0 0.00 0.00 0.00 87 1025.1
20200220010513 8 65 0.0 0.0 0.00 0.00 0.00 87 1025.0
20200220010057 8 65 0.0 0.0 0.00 0.00 0.00 87 1025.3
20200220010046 8 65 0.0 0.0 0.00 0.00 0.00 86 1025.3
20200220010005 8 65 0.0 0.0 0.00 0.00 0.00 86 1025.1
20200220005502 8 65 0.0 1.6 0.00 0.00 0.00 86 1025.1
20200220005045 8 65 0.0 1.6 0.00 0.00 0.00 85 1025.4
20200220005002 8 65 0.0 1.6 0.00 0.00 0.00 85 1025.2
20200220004519 8 65 0.0 1.6 0.00 0.00 0.00 83 1025.5
20200220004503 9 65 0.0 0.0 0.00 0.00 0.00 84 1025.2
20200220004029 9 65 0.0 4.8 0.00 0.00 0.00 84 1025.5
20200220003932 9 65 0.0 4.8 0.00 0.00 0.00 84 1025.3
20200220003431 9 65 0.0 4.8 0.00 0.00 0.00 86 1025.3
20200220003332 9 65 0.0 4.8 0.00 0.00 0.00 86 1025.6
20200220003037 9 65 0.0 4.8 0.00 0.00 0.00 85 1025.6
20200220002902 9 65 0.0 4.8 0.00 0.00 0.00 84 1025.4
20200220002335 9 65 0.0 4.8 0.00 0.00 0.00 85 1025.4
20200220002026 10 65 0.0 3.2 0.00 0.00 0.00 86 1025.6
20200220001831 9 65 0.0 3.2 0.00 0.00 0.00 85 1025.4
20200220001529 9 65 0.0 3.2 0.00 0.00 0.00 85 1025.7
20200220001330 9 65 0.0 3.2 0.00 0.00 0.00 85 1025.5
20200220001046 9 65 0.0 3.2 0.00 0.00 0.00 84 1025.7
20200220000805 10 65 0.0 1.6 0.00 0.00 0.00 84 1025.5
20200220000302 9 65 0.0 0.0 0.00 0.00 0.00 85 1025.5
20200220000034 10 65 0.0 0.0 0.00 0.00 0.00 85 1025.8
20200219235730 9 65 0.0 0.0 0.00 0.00 0.00 84 1025.5
20200219235230 9 65 0.0 0.0 0.00 0.00 0.00 83 1025.6
20200219235038 10 65 0.0 0.0 0.00 0.00 0.00 83 1025.8
20200219234702 10 65 0.0 1.6 0.00 0.00 0.00 82 1025.7
20200219234202 10 65 0.0 1.6 0.00 0.00 0.00 83 1025.6
20200219234040 10 65 0.0 1.6 0.00 0.00 0.00 83 1025.9
20200219233630 10 65 0.0 1.6 0.00 0.00 0.00 82 1025.7
20200219233130 10 65 0.0 1.6 0.00 0.00 0.00 81 1025.7
20200219233102 10 65 0.0 1.6 0.00 0.00 0.00 81 1026.0
20200219233058 10 65 0.0 1.6 0.00 0.00 0.00 81 1026.0
20200219232605 10 65 0.0 1.6 0.00 0.00 0.00 81 1025.7
20200219232104 10 65 0.0 1.6 0.00 0.00 0.00 81 1025.8
20200219232032 10 65 0.0 1.6 0.00 0.00 0.00 81 1026.0
20200219231604 10 65 0.0 1.6 0.00 0.00 0.00 81 1025.9
20200219231521 10 65 0.0 1.6 0.00 0.00 0.00 81 1026.2
20200219231104 10 65 0.0 1.6 0.00 0.00 0.00 80 1026.0
20200219231048 10 65 0.0 1.6 0.00 0.00 0.00 80 1026.2
20200219230607 10 65 0.0 1.6 0.00 0.00 0.00 80 1026.1
20200219230102 10 65 0.0 1.6 0.00 0.00 0.00 79 1026.1
20200219230035 10 65 0.0 0.0 0.00 0.00 0.00 79 1026.4
20200219225534 10 65 0.0 1.6 0.00 0.00 0.00 79 1026.2
20200219225041 10 65 0.0 3.2 0.00 0.00 0.00 78 1026.4
20200219225031 10 65 0.0 3.2 0.00 0.00 0.00 78 1026.2
20200219224531 10 65 1.6 6.4 0.00 0.00 0.00 77 1026.2
20200219224033 10 65 0.0 6.4 0.00 0.00 0.00 77 1026.6
20200219224022 10 65 1.6 6.4 0.00 0.00 0.00 77 1026.4
20200219223513 10 65 1.6 4.8 0.00 0.00 0.00 78 1026.4
20200219223052 10 65 0.0 4.8 0.00 0.00 0.00 79 1026.7
20200219223009 10 65 0.0 4.8 0.00 0.00 0.00 80 1026.4
20200219222441 10 64 0.0 8.0 0.00 0.00 0.00 80 1026.4
20200219222025 10 64 0.0 3.2 0.00 0.00 0.00 80 1026.8
20200219221936 10 64 0.0 8.0 0.00 0.00 0.00 80 1026.5
20200219221533 10 64 0.0 8.0 0.00 0.00 0.00 80 1026.8
20200219221435 10 64 1.6 3.2 0.00 0.00 0.00 80 1026.5
20200219221039 10 64 1.6 8.0 0.00 0.00 0.00 80 1026.8
20200219220908 10 64 1.6 9.7 0.00 0.00 0.00 80 1026.6
20200219220410 10 44 1.6 9.7 0.00 0.00 0.00 79 1026.6
20200219220052 10 44 0.0 9.7 0.00 0.00 0.00 79 1026.9
20200219215904 10 44 3.2 9.7 0.00 0.00 0.00 80 1026.7
20200219215404 10 49 1.6 9.7 0.00 0.00 0.00 81 1026.6
20200219215029 10 51 1.6 3.2 0.00 0.00 0.00 81 1026.9
20200219214903 10 51 0.0 4.8 0.00 0.00 0.00 81 1026.6
20200219214535 10 51 0.0 4.8 0.00 0.00 0.00 81 1026.9
20200219214405 10 51 0.0 4.8 0.00 0.00 0.00 81 1026.8
20200219214036 11 51 1.6 4.8 0.00 0.00 0.00 81 1026.9
20200219213902 10 72 0.0 0.0 0.00 0.00 0.00 81 1026.8
20200219213350 11 72 0.0 0.0 0.00 0.00 0.00 81 1026.7
20200219213049 11 72 0.0 0.0 0.00 0.00 0.00 81 1027.0
20200219213044 11 72 0.0 0.0 0.00 0.00 0.00 81 1026.9
20200219212831 11 72 0.0 0.0 0.00 0.00 0.00 80 1026.8
20200219212330 11 72 0.0 0.0 0.00 0.00 0.00 79 1026.8
20200219212039 11 72 0.0 0.0 0.00 0.00 0.00 79 1027.0
20200219211830 11 72 0.0 0.0 0.00 0.00 0.00 79 1026.8
20200219211331 11 72 0.0 0.0 0.00 0.00 0.00 79 1026.8
20200219211038 11 72 0.0 4.8 0.00 0.00 0.00 79 1027.0
20200219210832 11 72 1.6 4.8 0.00 0.00 0.00 80 1026.8
20200219210304 11 72 1.6 4.8 0.00 0.00 0.00 80 1026.8
20200219210049 11 72 1.6 3.2 0.00 0.00 0.00 80 1027.0
20200219205805 11 72 1.6 3.2 0.00 0.00 0.00 80 1026.8
20200219205304 11 72 0.0 3.2 0.00 0.00 0.00 80 1026.8
20200219205044 11 72 1.6 3.2 0.00 0.00 0.00 80 1027.1
20200219204801 11 72 0.0 1.6 0.00 0.00 0.00 80 1026.8
20200219204648 11 72 0.0 1.6 0.00 0.00 0.00 80 1027.1
20200219204303 11 72 0.0 3.2 0.00 0.00 0.00 79 1026.7
20200219204027 11 72 0.0 1.6 0.00 0.00 0.00 79 1027.0
20200219203802 11 72 0.0 3.2 0.00 0.00 0.00 79 1026.7
20200219203304 11 72 1.6 4.8 0.00 0.00 0.00 79 1026.8
20200219203040 12 72 0.0 4.8 0.00 0.00 0.00 78 1027.0
20200219202802 12 71 1.6 4.8 0.00 0.00 0.00 77 1026.8
20200219202305 12 75 1.6 3.2 0.00 0.00 0.00 76 1026.8
20200219202040 12 75 0.0 4.8 0.00 0.00 0.00 75 1027.1
20200219201802 12 75 3.2 8.0 0.00 0.00 0.00 75 1026.8
20200219201305 12 75 3.2 8.0 0.00 0.00 0.00 75 1026.8
20200219201029 12 74 1.6 14.5 0.00 0.00 0.00 75 1027.1
20200219200803 12 51 4.8 14.5 0.00 0.00 0.00 75 1026.9
20200219200302 12 46 4.8 14.5 0.00 0.00 0.00 75 1026.9
20200219200044 12 55 4.8 14.5 0.00 0.00 0.00 75 1027.1
20200219195808 12 46 8.0 14.5 0.00 0.00 0.00 74 1026.9
20200219195304 12 53 8.0 14.5 0.00 0.00 0.00 74 1027.0
20200219195025 12 57 8.0 14.5 0.00 0.00 0.00 74 1027.2
20200219194803 12 57 8.0 14.5 0.00 0.00 0.00 75 1027.0
20200219194302 12 67 8.0 14.5 0.00 0.00 0.00 76 1027.1
20200219194026 12 53 8.0 11.3 0.00 0.00 0.00 76 1027.2
20200219193802 12 55 8.0 12.9 0.00 0.00 0.00 76 1027.0
20200219193305 12 65 9.7 12.9 0.00 0.00 0.00 78 1027.0
20200219193134 12 55 8.0 12.9 0.00 0.00 0.00 78 1027.3
20200219193038 12 61 8.0 12.9 0.00 0.00 0.00 78 1027.3
20200219192804 12 53 9.7 16.1 0.00 0.00 0.00 78 1027.0
20200219192303 12 57 9.7 16.1 0.00 0.00 0.00 78 1027.0
20200219192035 12 56 9.7 14.5 0.00 0.00 0.00 78 1027.3
20200219191803 12 57 11.3 14.5 0.00 0.00 0.00 78 1027.0
20200219191533 12 51 11.3 17.7 0.00 0.00 0.00 77 1027.3
20200219191304 12 32 14.5 19.3 0.00 0.00 0.00 77 1027.0
20200219191032 12 62 12.9 19.3 0.00 0.00 0.00 77 1027.2
20200219190802 12 57 16.1 20.9 0.00 0.00 0.00 77 1027.0
20200219190302 12 46 12.9 20.9 0.00 0.00 0.00 77 1027.0
20200219190046 12 52 14.5 17.7 0.00 0.00 0.00 76 1027.2
20200219185802 13 61 11.3 19.3 0.00 0.00 0.00 76 1026.9
20200219185303 13 53 9.7 22.5 0.00 0.00 0.00 75 1027.0
20200219185056 13 61 12.9 22.5 0.00 0.00 0.00 75 1027.2
20200219184801 13 53 9.7 22.5 0.00 0.00 0.00 74 1026.9
20200219184715 13 61 9.7 22.5 0.00 0.00 0.00 74 1027.2
20200219184303 13 55 8.0 19.3 0.00 0.00 0.00 73 1027.0
20200219184035 13 69 6.4 19.3 0.00 0.00 0.00 73 1027.2
20200219183804 13 46 6.4 16.1 0.00 0.00 0.00 72 1027.0
20200219183304 13 51 6.4 16.1 0.00 0.00 0.00 71 1027.0
20200219183103 13 25 3.2 11.3 0.00 0.00 0.00 71 1027.2
20200219183043 13 54 3.2 12.9 0.00 0.00 0.00 71 1027.3
20200219182803 13 40 8.0 14.5 0.00 0.00 0.00 70 1026.9
20200219182233 14 46 8.0 14.5 0.00 0.00 0.00 70 1026.9
20200219182023 14 38 6.4 14.5 0.00 0.00 0.00 71 1027.2
20200219181731 14 30 8.0 14.5 0.00 0.00 0.00 70 1026.9
20200219181655 14 24 8.0 14.5 0.00 0.00 0.00 70 1027.2
20200219181231 15 32 9.7 12.9 0.00 0.00 0.00 69 1026.9
20200219181050 15 9 8.0 16.1 0.00 0.00 0.00 69 1027.1
20200219180704 15 22 11.3 16.1 0.00 0.00 0.00 68 1026.9
20200219180203 15 44 9.7 16.1 0.00 0.00 0.00 67 1026.9
20200219180053 15 24 9.7 14.5 0.00 0.00 0.00 67 1027.1
20200219175631 15 20 11.3 16.1 0.00 0.00 0.00 65 1026.9
20200219175131 15 32 8.0 16.1 0.00 0.00 0.00 65 1026.9
20200219175034 16 25 11.3 16.1 0.00 0.00 0.00 65 1027.1
20200219174602 16 30 6.4 12.9 0.00 0.00 0.00 65 1027.0
20200219174102 16 40 8.0 16.1 0.00 0.00 0.00 64 1027.0
20200219174028 16 40 6.4 16.1 0.00 0.00 0.00 64 1027.2
20200219173530 16 51 8.0 16.1 0.00 0.00 0.00 64 1027.0
20200219173046 17 26 6.4 12.9 0.00 0.00 0.00 65 1027.2
20200219173027 17 29 8.0 14.5 0.00 0.00 0.00 65 1027.0
20200219172505 17 36 8.0 14.5 0.00 0.00 0.00 63 1027.0
20200219172028 17 22 8.0 14.5 0.00 0.00 0.00 63 1027.2
20200219172005 17 55 8.0 16.1 0.00 0.00 0.00 62 1026.9
20200219171617 17 24 8.0 16.1 0.00 0.00 0.00 62 1027.2
20200219171430 17 36 9.7 16.1 0.00 0.00 0.00 63 1026.9
20200219171052 17 15 9.7 16.1 0.00 0.00 0.00 62 1027.2
20200219170906 17 47 9.7 17.7 0.00 0.00 0.00 62 1027.0
20200219170405 17 22 9.7 17.7 0.00 0.00 0.00 62 1026.9
20200219170040 17 61 11.3 17.7 0.00 0.00 0.00 62 1027.1
20200219165903 17 20 11.3 19.3 0.00 0.00 0.00 63 1026.9
20200219165405 17 78 11.3 19.3 0.00 0.00 0.00 62 1026.9
20200219165039 17 28 11.3 17.7 0.00 0.00 0.00 62 1027.2
20200219164904 17 24 11.3 17.7 0.00 0.00 0.00 63 1027.0
20200219164404 17 12 11.3 17.7 0.00 0.00 0.00 63 1027.0
20200219164032 17 38 11.3 17.7 0.00 0.00 0.00 62 1027.2
20200219163904 17 17 11.3 16.1 0.00 0.00 0.00 62 1027.0
20200219163405 17 13 9.7 16.1 0.00 0.00 0.00 61 1027.1
20200219163030 17 15 11.3 16.1 0.00 0.00 0.00 61 1027.3
20200219162903 17 0 11.3 17.7 0.00 0.00 0.00 60 1027.1
20200219162405 17 12 9.7 17.7 0.00 0.00 0.00 60 1027.1
20200219162034 17 13 11.3 17.7 0.00 0.00 0.00 61 1027.4
20200219161902 17 355 11.3 20.9 0.00 0.00 0.00 59 1027.1
20200219161731 17 332 8.0 19.3 0.00 0.00 0.00 60 1027.5
20200219161403 17 340 14.5 20.9 0.00 0.00 0.00 58 1027.2
20200219161029 17 333 12.9 20.9 0.00 0.00 0.00 58 1027.5
20200219160904 17 320 14.5 20.9 0.00 0.00 0.00 58 1027.2
20200219160334 17 321 12.9 20.9 0.00 0.00 0.00 59 1027.2
20200219160040 17 331 14.5 20.9 0.00 0.00 0.00 58 1027.5
20200219155806 18 321 11.3 17.7 0.00 0.00 0.00 59 1027.2
20200219155304 18 322 11.3 16.1 0.00 0.00 0.00 59 1027.2
20200219155031 18 305 9.7 16.1 0.00 0.00 0.00 60 1027.5
20200219154734 17 355 11.3 16.1 0.00 0.00 0.00 61 1027.3
20200219154220 18 303 11.3 17.7 0.00 0.00 0.00 60 1027.3
20200219154033 18 329 11.3 17.7 0.00 0.00 0.00 59 1027.5
20200219153705 18 318 9.7 17.7 0.00 0.00 0.00 60 1027.4
20200219153205 18 327 9.7 17.7 0.00 0.00 0.00 61 1027.4
20200219153050 18 319 8.0 16.1 0.00 0.00 0.00 62 1027.6
20200219152634 18 315 11.3 17.7 0.00 0.00 0.00 61 1027.5
20200219152133 18 309 11.3 17.7 0.00 0.00 0.00 60 1027.5
20200219152032 18 355 11.3 17.7 0.00 0.00 0.00 60 1027.7
20200219151605 18 331 11.3 17.7 0.00 0.00 0.00 59 1027.6
20200219151603 18 331 8.0 17.7 0.00 0.00 0.00 59 1027.8
20200219151106 18 342 11.3 16.1 0.00 0.00 0.00 61 1027.6
20200219151027 18 322 12.9 16.1 0.00 0.00 0.00 61 1027.8
20200219150556 18 326 8.0 16.1 0.00 0.00 0.00 61 1027.6
20200219150052 18 320 8.0 16.1 0.00 0.00 0.00 61 1027.9
20200219150035 18 315 8.0 16.1 0.00 0.00 0.00 61 1027.6
20200219150018 18 326 6.4 16.1 0.00 0.00 0.00 61 1027.9
20200219145532 18 338 8.0 16.1 0.00 0.00 0.00 59 1027.6
20200219145034 18 323 8.0 11.3 0.00 0.00 0.00 62 1027.7
20200219144526 18 355 9.7 16.1 0.00 0.00 0.00 60 1027.8
20200219144039 18 331 9.7 16.1 0.00 0.00 0.00 63 1028.1
20200219144005 17 340 9.7 17.7 0.00 0.00 0.00 64 1027.9
20200219143506 17 339 11.3 17.7 0.00 0.00 0.00 63 1028.0
20200219143038 17 321 9.7 17.7 0.00 0.00 0.00 63 1028.3
20200219143006 17 350 12.9 20.9 0.00 0.00 0.00 63 1028.1
20200219142432 18 338 14.5 20.9 0.00 0.00 0.00 62 1028.2
20200219142041 18 340 16.1 20.9 0.00 0.00 0.00 63 1028.4
20200219141934 18 342 11.3 19.3 0.00 0.00 0.00 62 1028.2
20200219141632 18 319 9.7 19.3 0.00 0.00 0.00 64 1028.5
20200219141404 18 348 9.7 19.3 0.00 0.00 0.00 65 1028.2
20200219141052 18 339 11.3 16.1 0.00 0.00 0.00 63 1028.6
20200219140903 18 313 8.0 16.1 0.00 0.00 0.00 61 1028.3
20200219140406 18 17 8.0 14.5 0.00 0.00 0.00 62 1028.4
20200219140041 18 9 8.0 14.5 0.00 0.00 0.00 61 1028.8
20200219135834 18 9 8.0 14.5 0.00 0.00 0.00 62 1028.5
20200219135334 18 355 9.7 14.5 0.00 0.00 0.00 65 1028.6
20200219135023 18 11 9.7 14.5 0.00 0.00 0.00 62 1028.9
20200219134816 18 342 8.0 14.5 0.00 0.00 0.00 62 1028.7
20200219134307 18 11 8.0 14.5 0.00 0.00 0.00 61 1028.8
20200219134039 18 15 4.8 14.5 0.00 0.00 0.00 63 1029.1
20200219133805 18 342 9.7 17.7 0.00 0.00 0.00 62 1028.9
20200219133235 18 5 8.0 17.7 0.00 0.00 0.00 60 1029.0
20200219133050 18 5 9.7 17.7 0.00 0.00 0.00 60 1029.2
20200219133027 18 20 8.0 17.7 0.00 0.00 0.00 58 1029.3
20200219132734 18 17 6.4 9.7 0.00 0.00 0.00 62 1029.0
20200219132206 19 57 8.0 17.7 0.00 0.00 0.00 60 1029.2
20200219132036 19 57 8.0 17.7 0.00 0.00 0.00 57 1029.4
20200219131707 19 50 8.0 14.5 0.00 0.00 0.00 54 1029.3
20200219131135 18 48 8.0 19.3 0.00 0.00 0.00 57 1029.3
20200219131102 18 48 6.4 17.7 0.00 0.00 0.00 57 1029.6
20200219130634 18 45 8.0 19.3 0.00 0.00 0.00 56 1029.4
20200219130120 18 38 12.9 17.7 0.00 0.00 0.00 55 1029.5
20200219130038 18 38 9.7 17.7 0.00 0.00 0.00 55 1029.7
20200219125619 18 13 12.9 17.7 0.00 0.00 0.00 56 1029.5
20200219125103 18 82 9.7 17.7 0.00 0.00 0.00 56 1029.6
20200219125033 18 67 12.9 17.7 0.00 0.00 0.00 56 1029.9
20200219124602 18 61 8.0 16.1 0.00 0.00 0.00 55 1029.7
20200219124110 17 72 9.7 16.1 0.00 0.00 0.00 56 1029.9
20200219124038 17 72 9.7 14.5 0.00 0.00 0.00 56 1030.2
20200219123604 17 44 9.7 16.1 0.00 0.00 0.00 55 1029.9
20200219123033 17 60 9.7 17.7 0.00 0.00 0.00 56 1030.0
20200219122532 17 59 8.0 17.7 0.00 0.00 0.00 56 1030.1
20200219122037 17 92 8.0 12.9 0.00 0.00 0.00 56 1030.5
20200219122006 17 68 8.0 14.5 0.00 0.00 0.00 55 1030.2
20200219121505 17 98 9.7 14.5 0.00 0.00 0.00 57 1030.4
20200219121049 17 59 8.0 17.7 0.00 0.00 0.00 57 1030.8
20200219120933 16 40 9.7 17.7 0.00 0.00 0.00 57 1030.5
20200219120433 16 51 8.0 17.7 0.00 0.00 0.00 58 1030.7
20200219120043 16 62 8.0 14.5 0.00 0.00 0.00 57 1031.0
20200219115931 16 52 8.0 12.9 0.00 0.00 0.00 56 1030.8
20200219115430 16 52 6.4 16.1 0.00 0.00 0.00 58 1031.0
20200219115025 16 44 6.4 16.1 0.00 0.00 0.00 58 1031.2
20200219114930 16 22 8.0 16.1 0.00 0.00 0.00 58 1031.0
20200219114434 16 49 11.3 22.5 0.00 0.00 0.00 59 1031.0
20200219114037 16 61 9.7 17.7 0.00 0.00 0.00 58 1031.3
20200219113934 16 82 12.9 22.5 0.00 0.00 0.00 58 1031.1
20200219113430 16 84 12.9 22.5 0.00 0.00 0.00 57 1031.1
20200219113035 16 61 14.5 22.5 0.00 0.00 0.00 58 1031.4
20200219112933 15 59 12.9 22.5 0.00 0.00 0.00 56 1031.1
20200219112432 15 37 12.9 20.9 0.00 0.00 0.00 57 1031.2
20200219112048 15 76 12.9 24.1 0.00 0.00 0.00 57 1031.5
20200219111930 15 30 16.1 24.1 0.00 0.00 0.00 58 1031.2
20200219111626 15 59 16.1 24.1 0.00 0.00 0.00 57 1031.5
20200219111431 15 70 16.1 24.1 0.00 0.00 0.00 56 1031.3
20200219111052 15 30 16.1 22.5 0.00 0.00 0.00 55 1031.6
20200219110935 15 71 14.5 25.7 0.00 0.00 0.00 56 1031.3
20200219110432 15 49 14.5 25.7 0.00 0.00 0.00 57 1031.4
20200219110044 15 82 16.1 25.7 0.00 0.00 0.00 57 1031.7
20200219105932 15 87 14.5 24.1 0.00 0.00 0.00 57 1031.4
20200219105431 15 63 14.5 24.1 0.00 0.00 0.00 57 1031.5
20200219105025 15 57 16.1 22.5 0.00 0.00 0.00 56 1031.8
20200219104931 15 75 12.9 24.1 0.00 0.00 0.00 56 1031.6
20200219104432 15 69 8.0 12.9 0.00 0.00 0.00 58 1031.6
20200219104043 15 78 8.0 14.5 0.00 0.00 0.00 58 1031.9
20200219103933 15 93 6.4 14.5 0.00 0.00 0.00 58 1031.7
20200219103430 15 111 8.0 14.5 0.00 0.00 0.00 60 1031.7
20200219103037 14 106 6.4 14.5 0.00 0.00 0.00 60 1032.0
20200219102933 14 62 8.0 14.5 0.00 0.00 0.00 60 1031.8
20200219102431 14 87 9.7 14.5 0.00 0.00 0.00 57 1031.7
20200219102048 14 79 8.0 14.5 0.00 0.00 0.00 60 1032.0
20200219101930 14 95 8.0 14.5 0.00 0.00 0.00 59 1031.8
20200219101634 13 67 6.4 12.9 0.00 0.00 0.00 61 1032.1
20200219101430 13 75 6.4 11.3 0.00 0.00 0.00 61 1031.8
20200219101036 13 61 8.0 11.3 0.00 0.00 0.00 60 1032.1
20200219100904 13 88 8.0 11.3 0.00 0.00 0.00 59 1031.8
20200219100404 13 90 8.0 11.3 0.00 0.00 0.00 60 1031.9
20200219100033 13 85 8.0 11.3 0.00 0.00 0.00 61 1032.1
20200219095904 13 63 6.4 14.5 0.00 0.00 0.00 62 1031.9
20200219095403 13 67 6.4 14.5 0.00 0.00 0.00 62 1031.9
20200219095026 13 57 4.8 14.5 0.00 0.00 0.00 65 1032.2
20200219094908 13 49 8.0 16.1 0.00 0.00 0.00 64 1031.9
20200219094507 12 58 6.4 14.5 0.00 0.00 0.00 65 1032.2
20200219094404 12 42 8.0 16.1 0.00 0.00 0.00 63 1031.9
20200219094044 12 51 8.0 16.1 0.00 0.00 0.00 64 1032.2
20200219093904 12 58 9.7 19.3 0.00 0.00 0.00 66 1031.9
20200219093407 12 66 12.9 19.3 0.00 0.00 0.00 64 1031.9
20200219093045 12 40 14.5 19.3 0.00 0.00 0.00 64 1032.1
20200219092905 12 41 11.3 19.3 0.00 0.00 0.00 66 1031.9
20200219092403 12 59 11.3 14.5 0.00 0.00 0.00 65 1031.8
20200219092051 12 61 11.3 14.5 0.00 0.00 0.00 68 1032.2
20200219091904 12 51 11.3 17.7 0.00 0.00 0.00 68 1032.0
20200219091617 11 54 11.3 17.7 0.00 0.00 0.00 67 1032.3
20200219091335 11 57 11.3 17.7 0.00 0.00 0.00 67 1032.0
20200219091027 11 30 12.9 17.7 0.00 0.00 0.00 67 1032.2
20200219090833 11 74 9.7 16.1 0.00 0.00 0.00 69 1031.9
20200219090307 11 54 8.0 16.1 0.00 0.00 0.00 69 1031.8
20200219090044 11 53 6.4 16.1 0.00 0.00 0.00 70 1032.0
20200219085803 11 49 9.7 16.1 0.00 0.00 0.00 69 1031.7
20200219085237 10 62 12.9 19.3 0.00 0.00 0.00 70 1031.5
20200219085039 10 62 9.7 19.3 0.00 0.00 0.00 71 1031.8
20200219084705 10 49 12.9 19.3 0.00 0.00 0.00 70 1031.4
20200219084209 10 67 11.3 22.5 0.00 0.00 0.00 70 1031.4
20200219084032 10 53 11.3 22.5 0.00 0.00 0.00 70 1031.7
20200219083707 10 47 11.3 22.5 0.00 0.00 0.00 71 1031.4
20200219083211 9 55 9.7 19.3 0.00 0.00 0.00 73 1031.6
20200219083204 9 45 11.3 19.3 0.00 0.00 0.00 73 1031.3
20200219083035 9 59 11.3 19.3 0.00 0.00 0.00 73 1031.6
20200219082702 9 52 11.3 20.9 0.00 0.00 0.00 73 1031.3
20200219082202 8 61 9.7 20.9 0.00 0.00 0.00 75 1031.2
20200219082051 8 71 8.0 20.9 0.00 0.00 0.00 75 1031.5
20200219081704 8 55 9.7 22.5 0.00 0.00 0.00 76 1031.2
20200219081535 8 53 11.3 22.5 0.00 0.00 0.00 77 1031.5
20200219081202 8 57 9.7 22.5 0.00 0.00 0.00 78 1031.2
20200219081036 8 41 9.7 22.5 0.00 0.00 0.00 78 1031.5
20200219080643 7 11 8.0 16.1 0.00 0.00 0.00 79 1031.1
20200219080133 7 45 4.8 11.3 0.00 0.00 0.00 79 1031.1
20200219080050 7 60 6.4 11.3 0.00 0.00 0.00 79 1031.3
20200219075632 7 57 4.8 11.3 0.00 0.00 0.00 79 1031.1
20200219075131 7 62 4.8 20.9 0.00 0.00 0.00 79 1031.0
20200219075028 7 65 4.8 14.5 0.00 0.00 0.00 79 1031.3
20200219074634 7 39 9.7 20.9 0.00 0.00 0.00 79 1031.0
20200219074115 7 52 12.9 22.5 0.00 0.00 0.00 79 1030.8
20200219074031 7 52 12.9 22.5 0.00 0.00 0.00 79 1031.1
20200219073609 7 59 12.9 22.5 0.00 0.00 0.00 79 1030.8
20200219073106 7 63 11.3 20.9 0.00 0.00 0.00 79 1030.7
20200219073039 7 55 11.3 19.3 0.00 0.00 0.00 79 1031.0
20200219072559 7 66 6.4 17.7 0.00 0.00 0.00 80 1030.7
20200219072031 7 67 4.8 8.0 0.00 0.00 0.00 80 1030.6
20200219072025 7 67 4.8 8.0 0.00 0.00 0.00 80 1030.9
20200219071613 7 53 4.8 9.7 0.00 0.00 0.00 80 1031.0
20200219071530 7 53 4.8 20.9 0.00 0.00 0.00 80 1030.6